SCP
0 0 0 0 0 0 0 0 0 0 0 0 0 0 0 -0 0 0 0 0 0 0 0 0 0 0 -0 -0 -0 -0 -0 -0 0 0 0 -0 -0 -0 -0 0 0 0 0 -0
0 0 0 0 0 0 0 0 0 0 0 0 0 0 0 0 0 0 0 0 0 0 0 0 0 -0 0 0 0 -0 -0 -0 -0 0 0 0 0 -0 -0 -0 0 0 0 -0
0 0 0 0 0 0 0 0 0 0 0 0 0 0 0 0 0 0 0 0 0 0 0 0 0 -0 -0 0 0 0 0 0 0 0 0 0 0 -0 0 -0 -0 -0 -0 -0
0 0 0 0 0 0 0 0 0 0 0 0 0 0 0 -0 0 0 0 0 0 0 0 -0 0 -0 -0 -0 -0 0 -0 -0 0 -0 -0 -0 -0 -0 -0 -0 -0 -0 -0 -0
0 0 0 0 0 0 0 0 0 0 0 0 0 0 0 0 0 -0 0 0 0 0 0 0 -0 -0 -0 0 -0 -0 0 -0 0 -0 -0 -0 -0 -0 -0 -0 -0 -0 -0 0
0 0 0 0 0 0 0 0 0 0 0 0 0 0 -0 0 -0 0 0 0 0 0 0 -0 -0 -0 -0 -0 -0 0 0 0 -0 0 -0 -0 -0 -0 -0 -0 0 -0 -0 0
0 0 0 0 0 0 0 0 0 0 0 0 0 0 0 0 0 0 0 0 0 0 -0 -0 -0 -0 -0 -0 -0 0 0 0 -0 0 0 0 0 -0 0 0 0 0 0 0
0 0 0 0 0 0 0 0 0 0 0 0 0 -0 0 -0 0 0 0 0 0 0 0 0 0 0 0 0 0 0 0 0 0 0 0 0 0 -0 0 -0 0 0 -0 0
0 0 0 0 0 0 0 0 0 0 0 0 0 0 0 -0 -0 0 0 0 0 0 0 0 0 0 0 0 -0 0 0 0 0 0 0 0 0 -0 0 0 0 0 -0 -0
0 0 0 0 0 0 0 0 0 0 0 0 0 0 0 -0 -0 -0 -0 0 0 0 0 0 0 0 0 0 0 0 0 0 0 0 0 0 0 -0 -0 0 0 0 -0 -0
0 0 0 0 0 0 0 0 0 0 0 0 0 0 -0 -0 -0 0 0 0 0 0 0 0 0 0 0 0 0 0 0 0 0 0 0 0 -0 -0 0 0 0 -0 -0 -0
0 0 0 0 0 0 0 0 0 0 0 0 0 -0 -0 -0 -0 0 0 0 0 0 0 0 0 0 0 0 0 0 0 0 0 0 0 0 0 -0 0 -0 -0 -0 -0 0
0 0 0 0 0 0 0 0 0 0 0 0 0 -0 -0 0 -0 0 0 0 0 0 0 0 0 0 0 0 0 0 0 0 0 0 -0 -0 -0 -0 -0 -0 -0 0 0 0
0 0 0 0 0 0 0 0 0 0 0 0 0 -0 -0 -0 0 0 -0 0 0 0 0 0 0 0 0 0 0 0 0 0 0 0 0 0 0 0 0 0 -0 -0 0 0
0 0 0 -0 -0 -0 0 0 0 0 0 0 -0 -0 0 -0 0 -0 0 0 0 -0 -0 0 0 0 0 0 0 0 0 0 0 0 0 0 0 0 0 -0 0 0 0 0
0 -0 -0 -0 -0 -0 0 0 0 0 0 0 -0 0 -0 -0 -0 -0 0 0 0 -0 0 0 0 0 0 0 0 0 0 0 0 0 0 0 0 0 0 0 -0 -0 -0 -0
-0 -0 -0 -0 -0 0 0 0 0 -0 -0 -0 -0 -0 0 -0 -0 -0 0 0 0 0 0 0 0 0 0 0 0 0 0 0 0 0 0 0 0 0 0 0 -0 -0 -0 -0
-0 -0 -0 -0 -0 -0 0 0 -0 -0 0 -0 -0 0 -0 -0 -0 0 0 0 0 0 0 0 0 0 0 0 0 0 0 0 0 0 0 0 0 0 -0 -0 -0 -0 0 0
-0 -0 -0 0 0 0 0 0 -0 -0 0 -0 -0 -0 -0 0 -0 0 0 0 0 0 0 -0 -0 0 0 0 0 0 0 0 -0 -0 -0 0 0 -0 0 0 0 0 0 0
-0 0 0 0 0 0 0 0 -0 -0 0 0 -0 0 -0 0 0 0 0 0 0 0 0 0 0 0 0 0 0 0 0 0 -0 -0 -0 0 0 -0 0 0 0 0 0 0
0 0 0 0 0 0 0 0 0 -0 0 -0 0 -0 -0 0 0 0 0 0 0 0 0 0 0 0 0 0 0 0 0 0 0 0 -0 0 -0 -0 -0 0 0 0 0 0
0 0 0 0 0 0 0 0 0 0 -0 -0 0 -0 0 0 0 0 0 0 -0 -0 0 0 0 0 0 0 0 0 -0 0 0 0 0 0 0 0 0 0 0 0 0 0
0 0 0 0 0 0 0 0 0 0 -0 -0 0 -0 -0 0 0 -0 0 0 0 -0 0 -0 -0 0 0 -0 0 -0 -0 -0 -0 0 0 0 0 0 0 -0 -0 -0 -0 -0
0 0 0 0 0 0 0 0 0 -0 -0 -0 -0 -0 0 -0 0 0 0 0 0 0 0 0 -0 0 0 -0 -0 0 -0 -0 0 0 0 0 0 -0 -0 0 -0 -0 -0 -0
0 0 0 0 0 0 0 0 -0 -0 0 0 0 0 0 -0 0 0 0 0 0 0 0 -0 -0 0 0 0 0 0 0 0 0 0 -0 -0 -0 -0 -0 -0 -0 -0 -0 -0
0 0 0 0 0 0 0 0 0 0 0 0 0 0 0 0 0 0 0 0 0 0 0 0 0 0 0 0 0 -0 -0 -0 -0 -0 -0 -0 -0 -0 -0 -0 -0 -0 -0 0
0 0 0 0 -0 0 0 0 -0 0 0 0 0 0 0 0 0 0 0 0 0 0 0 0 0 0 0 0 0 0 0 0 0 0 0 -0 -0 0 0 0 0 0 0 0
Wind_Speed_500mb
72 72 71 70 64 71 65 22 8 35 47 13 17 10 27 49 46 31 21 16 20 19 36 31 28 18 20 44 28 18 9 7 12 24 31 22 13 20 14 10 11 13 10 21
69 66 67 65 58 55 66 38 16 25 27 7 9 22 29 43 38 30 31 18 21 32 18 17 20 29 31 54 26 10 6 7 10 15 6 8 5 20 17 18 8 19 16 12
65 64 62 60 52 42 43 17 8 23 24 45 21 24 29 30 39 35 44 30 20 16 28 23 22 39 17 52 37 47 17 10 20 16 20 14 14 26 23 23 10 14 19 16
59 58 58 57 49 39 28 16 10 17 10 21 33 36 29 39 38 31 36 8 13 33 18 36 12 31 38 29 20 8 5 10 18 32 38 40 40 35 24 17 25 14 14 14
52 54 54 52 48 37 16 15 13 18 39 37 31 29 29 31 45 43 20 22 43 36 23 29 46 39 31 12 10 13 11 8 26 33 38 35 32 23 31 22 32 47 17 6
47 49 50 46 43 34 13 17 26 19 17 21 22 17 40 42 46 20 49 40 41 35 27 61 76 69 58 30 13 6 5 7 8 11 24 34 18 30 28 24 11 13 9 12
43 44 47 42 34 24 18 24 34 15 15 18 22 48 46 39 43 37 58 56 22 41 93 85 52 41 35 25 26 23 7 6 6 12 13 7 14 22 13 28 20 13 14 18
42 43 45 41 31 28 23 17 26 14 16 25 40 45 44 52 52 37 51 50 49 83 53 12 15 5 3 4 7 19 16 4 7 6 10 14 19 28 12 37 16 19 27 28
40 42 43 39 30 31 24 23 20 28 23 10 58 53 43 35 29 25 50 62 49 29 6 7 8 7 11 6 8 8 13 9 4 5 8 7 10 35 30 4 10 9 40 44
38 42 43 36 29 33 25 26 15 30 36 44 31 36 33 33 28 17 41 36 24 25 8 7 6 7 16 11 13 7 3 3 8 10 6 10 11 48 40 9 2 20 57 54
38 42 40 35 30 36 26 33 20 26 31 74 55 38 59 84 50 13 37 23 5 5 9 6 7 6 8 9 7 13 7 8 4 6 6 6 38 32 11 16 41 57 65 80
39 41 38 33 32 33 23 36 28 30 46 65 88 68 41 52 67 60 26 24 13 5 4 3 5 5 6 10 7 13 5 8 7 7 5 28 29 37 55 65 74 65 76 72
40 38 36 33 36 29 26 38 41 38 38 57 24 35 49 51 27 25 31 12 9 13 17 3 3 6 3 8 7 9 12 16 7 6 26 34 54 62 70 74 72 72 64 67
38 36 35 32 32 29 33 40 33 22 21 12 23 52 42 36 38 32 29 30 36 19 15 5 3 5 1 3 5 8 8 19 14 6 19 22 61 55 63 70 76 81 76 72
34 34 29 26 26 32 34 19 5 12 24 12 45 59 20 29 31 19 29 25 12 8 6 3 4 6 6 6 5 7 17 9 8 8 23 24 31 40 57 70 70 73 82 76
31 29 25 23 27 28 21 8 7 4 12 15 9 26 27 40 5 41 29 36 7 3 3 3 8 14 9 6 5 16 35 32 22 11 43 48 46 49 58 71 72 77 82 85
28 25 23 25 22 20 11 9 8 16 23 9 12 14 16 41 11 34 29 29 19 14 8 12 9 13 16 6 6 25 26 21 19 19 30 46 35 41 61 73 77 89 84 81
21 20 19 16 11 6 8 10 9 9 11 8 5 9 19 28 22 14 22 18 23 29 13 18 11 7 9 8 13 19 24 42 49 53 53 58 66 72 69 74 85 85 82 76
10 14 11 9 2 3 9 20 30 24 11 10 8 6 7 16 16 13 8 5 5 8 6 8 16 7 11 6 19 22 21 29 48 56 58 58 64 70 76 71 61 62 58 58
9 6 4 5 3 15 22 6 2 8 9 11 9 13 7 20 16 11 13 2 3 4 4 9 8 8 30 32 31 24 24 24 28 40 48 51 52 59 54 46 49 56 58 61
10 7 8 18 23 5 4 6 10 14 9 12 14 26 12 23 3 5 6 3 4 4 3 5 7 9 15 12 24 21 17 38 49 28 35 35 43 46 48 49 53 56 58 58
11 14 20 11 2 8 7 6 8 6 5 7 11 26 30 16 7 6 7 3 5 5 3 6 5 6 24 28 28 31 35 28 46 52 53 50 48 48 50 51 52 51 51 49
4 4 6 6 7 3 6 6 3 4 5 7 26 11 10 9 7 8 5 6 4 10 6 5 3 14 14 32 34 38 35 37 41 41 42 44 44 43 44 47 47 46 45 44
3 7 6 7 7 7 1 4 6 14 19 28 32 21 8 11 5 0 5 6 5 7 6 3 3 7 11 30 30 32 35 38 41 39 35 40 42 43 41 41 44 46 44 41
7 7 6 8 11 10 15 13 18 20 26 28 17 15 12 7 4 4 6 4 6 7 5 5 19 14 11 35 32 30 31 34 37 38 39 40 39 37 38 35 37 39 40 40
6 11 10 16 13 15 20 14 18 25 24 26 13 6 5 5 1 2 6 5 4 2 6 23 21 22 20 25 28 32 34 32 33 35 35 35 36 38 38 36 35 36 37 38
8 15 22 21 21 20 27 20 16 20 23 1 9 7 2 5 1 5 6 4 3 16 19 23 18 27 22 23 22 33 34 33 31 29 32 35 32 36 37 38 33 31 31 33
Wind_Direction_500mb
345 345 347 350 357 350 1 5 308 335 341 5 350 360 314 313 324 358 346 303 3 320 319 300 296 274 305 326 9 335 333 262 272 264 273 281 273 267 263 233 255 219 156 250
339 343 346 349 356 357 346 335 285 349 25 30 350 318 320 315 332 359 347 330 320 304 322 326 313 290 318 313 348 332 308 298 314 307 162 117 258 264 239 235 267 227 208 253
337 340 345 347 353 1 351 328 317 349 347 8 353 319 304 322 345 331 342 305 318 330 314 301 285 290 318 332 319 308 327 222 223 241 266 290 268 269 252 197 219 241 227 290
333 338 343 344 350 4 4 354 3 21 318 328 312 300 291 339 335 335 351 308 322 314 299 305 259 308 306 314 309 314 258 262 260 261 272 281 280 259 275 221 222 224 206 235
332 336 341 342 347 2 48 0 347 318 303 304 306 317 354 328 325 334 337 321 316 312 298 283 295 304 301 275 307 331 355 285 314 293 280 271 298 254 250 221 189 236 141 344
330 333 338 342 345 4 6 337 326 289 286 310 326 328 330 308 330 324 328 328 318 310 300 304 291 280 272 250 230 238 257 287 317 271 325 310 279 242 226 230 252 212 156 176
327 329 334 340 343 350 325 314 320 297 293 312 305 312 328 325 320 310 319 324 318 309 312 306 295 265 243 231 236 207 206 263 298 291 306 287 312 325 104 123 94 80 90 85
324 328 330 334 337 337 322 340 315 288 291 302 301 331 318 315 314 312 304 315 322 323 319 326 331 24 10 298 220 194 199 178 281 289 304 283 359 1 8 108 54 72 102 107
321 324 325 330 334 330 318 319 310 299 298 242 320 307 306 311 311 313 306 315 323 336 299 316 323 338 347 2 347 178 164 221 300 312 301 17 330 337 330 100 71 48 114 112
319 321 325 327 331 326 315 310 309 305 286 290 303 307 297 298 304 295 304 343 332 358 338 327 333 331 351 344 345 329 230 194 240 261 281 287 326 334 314 60 219 123 110 105
318 322 323 325 330 320 315 304 321 303 287 292 290 283 292 296 292 265 291 324 28 322 11 345 348 310 334 310 337 333 351 315 1 309 313 0 329 333 60 109 72 124 108 109
320 321 322 324 323 318 316 304 310 304 288 276 294 299 296 296 292 263 271 259 308 263 325 344 308 309 313 315 341 338 38 1 310 25 283 293 17 86 96 100 100 98 105 111
319 320 320 325 318 319 309 307 312 314 298 304 301 301 311 311 342 331 254 289 253 220 213 220 271 287 311 345 15 301 344 10 355 324 352 20 52 73 88 98 95 101 105 110
318 318 321 322 319 317 311 305 311 288 284 284 292 313 333 350 323 288 291 288 276 254 177 185 259 267 354 22 15 3 324 307 317 358 353 1 44 61 91 96 103 104 102 102
318 320 320 323 320 320 323 334 26 305 264 288 299 324 19 337 8 19 7 357 5 159 151 197 246 235 238 124 100 11 332 310 5 29 356 55 52 75 98 101 105 111 114 106
319 319 318 315 318 320 353 326 65 67 329 303 308 308 335 331 276 8 17 16 358 35 230 255 356 358 8 53 62 339 350 35 64 69 70 75 82 85 102 108 113 119 120 120
318 314 309 310 306 298 253 245 277 320 321 282 295 284 272 328 20 8 357 3 26 24 35 353 351 27 52 38 34 322 9 79 68 95 85 71 81 90 100 108 111 117 114 114
312 310 313 311 289 310 295 311 325 310 291 266 276 276 301 20 15 1 346 3 26 24 13 350 353 35 90 52 10 10 29 70 76 84 90 92 95 96 95 104 116 111 108 105
314 321 310 295 182 279 275 299 303 294 246 299 254 289 297 334 354 354 311 12 79 8 14 13 3 358 48 113 65 53 50 79 89 92 92 93 92 98 100 99 98 101 107 110
345 344 325 253 251 285 314 280 236 197 222 226 256 260 262 296 18 336 326 307 128 96 27 33 8 45 126 141 96 81 76 117 135 109 103 101 101 103 102 100 108 110 113 117
347 320 266 247 272 269 253 258 213 190 221 216 246 266 260 317 304 242 289 315 21 70 138 93 21 8 351 165 166 108 71 70 86 137 151 126 121 128 123 114 119 120 119 119
301 299 291 312 321 229 254 233 237 220 332 231 267 320 312 290 261 212 270 298 134 150 195 90 52 299 15 92 135 143 95 114 94 101 105 111 116 119 119 120 121 121 122 124
27 310 285 239 251 0 236 325 350 343 256 307 329 327 300 307 270 233 94 301 86 162 65 72 213 293 67 98 103 114 113 105 106 105 108 112 116 122 125 124 124 125 127 131
235 238 288 232 223 245 176 204 306 323 327 317 322 320 292 289 279 266 197 266 358 115 76 85 232 259 74 118 113 112 118 120 120 120 118 118 119 120 124 128 134 134 131 133
253 259 239 250 332 273 275 325 315 316 314 301 312 309 234 271 290 305 11 1 68 48 120 193 202 188 103 125 124 125 124 123 123 125 126 128 127 127 128 130 132 132 133 137
238 245 253 271 307 320 327 335 324 341 324 318 297 263 259 279 230 277 20 62 63 253 122 168 172 176 139 131 140 143 134 132 131 135 136 135 136 134 133 134 137 140 145 144
235 238 240 272 292 278 285 316 332 329 321 292 260 262 5 281 303 57 50 60 111 124 126 166 167 181 165 145 129 144 136 136 138 138 141 142 138 135 137 140 140 140 143 144
Wind_Speed_850mb
72 72 71 70 64 71 65 22 8 35 47 13 17 10 27 49 46 31 21 16 20 19 36 31 28 18 20 44 28 18 9 7 12 24 31 22 13 20 14 10 11 13 10 21
69 66 67 65 58 55 66 38 16 25 27 7 9 22 29 43 38 30 31 18 21 32 18 17 20 29 31 54 26 10 6 7 10 15 6 8 5 20 17 18 8 19 16 12
65 64 62 60 52 42 43 17 8 23 24 45 21 24 29 30 39 35 44 30 20 16 28 23 22 39 17 52 37 47 17 10 20 16 20 14 14 26 23 23 10 14 19 16
59 58 58 57 49 39 28 16 10 17 10 21 33 36 29 39 38 31 36 8 13 33 18 36 12 31 38 29 20 8 5 10 18 32 38 40 40 35 24 17 25 14 14 14
52 54 54 52 48 37 16 15 13 18 39 37 31 29 29 31 45 43 20 22 43 36 23 29 46 39 31 12 10 13 11 8 26 33 38 35 32 23 31 22 32 47 17 6
47 49 50 46 43 34 13 17 26 19 17 21 22 17 40 42 46 20 49 40 41 35 27 61 76 69 58 30 13 6 5 7 8 11 24 34 18 30 28 24 11 13 9 12
43 44 47 42 34 24 18 24 34 15 15 18 22 48 46 39 43 37 58 56 22 41 93 85 52 41 35 25 26 23 7 6 6 12 13 7 14 22 13 28 20 13 14 18
42 43 45 41 31 28 23 17 26 14 16 25 40 45 44 52 52 37 51 50 49 83 53 12 15 5 3 4 7 19 16 4 7 6 10 14 19 28 12 37 16 19 27 28
40 42 43 39 30 31 24 23 20 28 23 10 58 53 43 35 29 25 50 62 49 29 6 7 8 7 11 6 8 8 13 9 4 5 8 7 10 35 30 4 10 9 40 44
38 42 43 36 29 33 25 26 15 30 36 44 31 36 33 33 28 17 41 36 24 25 8 7 6 7 16 11 13 7 3 3 8 10 6 10 11 48 40 9 2 20 57 54
38 42 40 35 30 36 26 33 20 26 31 74 55 38 59 84 50 13 37 23 5 5 9 6 7 6 8 9 7 13 7 8 4 6 6 6 38 32 11 16 41 57 65 80
39 41 38 33 32 33 23 36 28 30 46 65 88 68 41 52 67 60 26 24 13 5 4 3 5 5 6 10 7 13 5 8 7 7 5 28 29 37 55 65 74 65 76 72
40 38 36 33 36 29 26 38 41 38 38 57 24 35 49 51 27 25 31 12 9 13 17 3 3 6 3 8 7 9 12 16 7 6 26 34 54 62 70 74 72 72 64 67
38 36 35 32 32 29 33 40 33 22 21 12 23 52 42 36 38 32 29 30 36 19 15 5 3 5 1 3 5 8 8 19 14 6 19 22 61 55 63 70 76 81 76 72
34 34 29 26 26 32 34 19 5 12 24 12 45 59 20 29 31 19 29 25 12 8 6 3 4 6 6 6 5 7 17 9 8 8 23 24 31 40 57 70 70 73 82 76
31 29 25 23 27 28 21 8 7 4 12 15 9 26 27 40 5 41 29 36 7 3 3 3 8 14 9 6 5 16 35 32 22 11 43 48 46 49 58 71 72 77 82 85
28 25 23 25 22 20 11 9 8 16 23 9 12 14 16 41 11 34 29 29 19 14 8 12 9 13 16 6 6 25 26 21 19 19 30 46 35 41 61 73 77 89 84 81
21 20 19 16 11 6 8 10 9 9 11 8 5 9 19 28 22 14 22 18 23 29 13 18 11 7 9 8 13 19 24 42 49 53 53 58 66 72 69 74 85 85 82 76
10 14 11 9 2 3 9 20 30 24 11 10 8 6 7 16 16 13 8 5 5 8 6 8 16 7 11 6 19 22 21 29 48 56 58 58 64 70 76 71 61 62 58 58
9 6 4 5 3 15 22 6 2 8 9 11 9 13 7 20 16 11 13 2 3 4 4 9 8 8 30 32 31 24 24 24 28 40 48 51 52 59 54 46 49 56 58 61
10 7 8 18 23 5 4 6 10 14 9 12 14 26 12 23 3 5 6 3 4 4 3 5 7 9 15 12 24 21 17 38 49 28 35 35 43 46 48 49 53 56 58 58
11 14 20 11 2 8 7 6 8 6 5 7 11 26 30 16 7 6 7 3 5 5 3 6 5 6 24 28 28 31 35 28 46 52 53 50 48 48 50 51 52 51 51 49
4 4 6 6 7 3 6 6 3 4 5 7 26 11 10 9 7 8 5 6 4 10 6 5 3 14 14 32 34 38 35 37 41 41 42 44 44 43 44 47 47 46 45 44
3 7 6 7 7 7 1 4 6 14 19 28 32 21 8 11 5 0 5 6 5 7 6 3 3 7 11 30 30 32 35 38 41 39 35 40 42 43 41 41 44 46 44 41
7 7 6 8 11 10 15 13 18 20 26 28 17 15 12 7 4 4 6 4 6 7 5 5 19 14 11 35 32 30 31 34 37 38 39 40 39 37 38 35 37 39 40 40
6 11 10 16 13 15 20 14 18 25 24 26 13 6 5 5 1 2 6 5 4 2 6 23 21 22 20 25 28 32 34 32 33 35 35 35 36 38 38 36 35 36 37 38
8 15 22 21 21 20 27 20 16 20 23 1 9 7 2 5 1 5 6 4 3 16 19 23 18 27 22 23 22 33 34 33 31 29 32 35 32 36 37 38 33 31 31 33
Wind_Direction_850mb
345 345 347 350 357 350 1 5 308 335 341 5 350 360 314 313 324 358 346 303 3 320 319 300 296 274 305 326 9 335 333 262 272 264 273 281 273 267 263 233 255 219 156 250
339 343 346 349 356 357 346 335 285 349 25 30 350 318 320 315 332 359 347 330 320 304 322 326 313 290 318 313 348 332 308 298 314 307 162 117 258 264 239 235 267 227 208 253
337 340 345 347 353 1 351 328 317 349 347 8 353 319 304 322 345 331 342 305 318 330 314 301 285 290 318 332 319 308 327 222 223 241 266 290 268 269 252 197 219 241 227 290
333 338 343 344 350 4 4 354 3 21 318 328 312 300 291 339 335 335 351 308 322 314 299 305 259 308 306 314 309 314 258 262 260 261 272 281 280 259 275 221 222 224 206 235
332 336 341 342 347 2 48 0 347 318 303 304 306 317 354 328 325 334 337 321 316 312 298 283 295 304 301 275 307 331 355 285 314 293 280 271 298 254 250 221 189 236 141 344
330 333 338 342 345 4 6 337 326 289 286 310 326 328 330 308 330 324 328 328 318 310 300 304 291 280 272 250 230 238 257 287 317 271 325 310 279 242 226 230 252 212 156 176
327 329 334 340 343 350 325 314 320 297 293 312 305 312 328 325 320 310 319 324 318 309 312 306 295 265 243 231 236 207 206 263 298 291 306 287 312 325 104 123 94 80 90 85
324 328 330 334 337 337 322 340 315 288 291 302 301 331 318 315 314 312 304 315 322 323 319 326 331 24 10 298 220 194 199 178 281 289 304 283 359 1 8 108 54 72 102 107
321 324 325 330 334 330 318 319 310 299 298 242 320 307 306 311 311 313 306 315 323 336 299 316 323 338 347 2 347 178 164 221 300 312 301 17 330 337 330 100 71 48 114 112
319 321 325 327 331 326 315 310 309 305 286 290 303 307 297 298 304 295 304 343 332 358 338 327 333 331 351 344 345 329 230 194 240 261 281 287 326 334 314 60 219 123 110 105
318 322 323 325 330 320 315 304 321 303 287 292 290 283 292 296 292 265 291 324 28 322 11 345 348 310 334 310 337 333 351 315 1 309 313 0 329 333 60 109 72 124 108 109
320 321 322 324 323 318 316 304 310 304 288 276 294 299 296 296 292 263 271 259 308 263 325 344 308 309 313 315 341 338 38 1 310 25 283 293 17 86 96 100 100 98 105 111
319 320 320 325 318 319 309 307 312 314 298 304 301 301 311 311 342 331 254 289 253 220 213 220 271 287 311 345 15 301 344 10 355 324 352 20 52 73 88 98 95 101 105 110
318 318 321 322 319 317 311 305 311 288 284 284 292 313 333 350 323 288 291 288 276 254 177 185 259 267 354 22 15 3 324 307 317 358 353 1 44 61 91 96 103 104 102 102
318 320 320 323 320 320 323 334 26 305 264 288 299 324 19 337 8 19 7 357 5 159 151 197 246 235 238 124 100 11 332 310 5 29 356 55 52 75 98 101 105 111 114 106
319 319 318 315 318 320 353 326 65 67 329 303 308 308 335 331 276 8 17 16 358 35 230 255 356 358 8 53 62 339 350 35 64 69 70 75 82 85 102 108 113 119 120 120
318 314 309 310 306 298 253 245 277 320 321 282 295 284 272 328 20 8 357 3 26 24 35 353 351 27 52 38 34 322 9 79 68 95 85 71 81 90 100 108 111 117 114 114
312 310 313 311 289 310 295 311 325 310 291 266 276 276 301 20 15 1 346 3 26 24 13 350 353 35 90 52 10 10 29 70 76 84 90 92 95 96 95 104 116 111 108 105
314 321 310 295 182 279 275 299 303 294 246 299 254 289 297 334 354 354 311 12 79 8 14 13 3 358 48 113 65 53 50 79 89 92 92 93 92 98 100 99 98 101 107 110
345 344 325 253 251 285 314 280 236 197 222 226 256 260 262 296 18 336 326 307 128 96 27 33 8 45 126 141 96 81 76 117 135 109 103 101 101 103 102 100 108 110 113 117
347 320 266 247 272 269 253 258 213 190 221 216 246 266 260 317 304 242 289 315 21 70 138 93 21 8 351 165 166 108 71 70 86 137 151 126 121 128 123 114 119 120 119 119
301 299 291 312 321 229 254 233 237 220 332 231 267 320 312 290 261 212 270 298 134 150 195 90 52 299 15 92 135 143 95 114 94 101 105 111 116 119 119 120 121 121 122 124
27 310 285 239 251 0 236 325 350 343 256 307 329 327 300 307 270 233 94 301 86 162 65 72 213 293 67 98 103 114 113 105 106 105 108 112 116 122 125 124 124 125 127 131
235 238 288 232 223 245 176 204 306 323 327 317 322 320 292 289 279 266 197 266 358 115 76 85 232 259 74 118 113 112 118 120 120 120 118 118 119 120 124 128 134 134 131 133
253 259 239 250 332 273 275 325 315 316 314 301 312 309 234 271 290 305 11 1 68 48 120 193 202 188 103 125 124 125 124 123 123 125 126 128 127 127 128 130 132 132 133 137
238 245 253 271 307 320 327 335 324 341 324 318 297 263 259 279 230 277 20 62 63 253 122 168 172 176 139 131 140 143 134 132 131 135 136 135 136 134 133 134 137 140 145 144
235 238 240 272 292 278 285 316 332 329 321 292 260 262 5 281 303 57 50 60 111 124 126 166 167 181 165 145 129 144 136 136 138 138 141 142 138 135 137 140 140 140 143 144